Location: Riverside Cemetery
(38.3047°N, 99.7773°W)
Time: 06:28:29
(UTC+00:00)

ATLAS 5 CENTAUR R/B - Pass Details

Date: 19 September 2020
Orbit: 262 x 14284 km, 60.7° (Epoch: 19 October)

Event Time Altitude Azimuth Distance (km) Brightness Sun altitude
Rises 02:21:13 0° 315° (NW) 2,521 6.3 -20.0°
Reaches altitude 10° 02:22:34 10° 310° (NW) 1,930 5.6 -20.3°
Maximum altitude 02:26:24 58° 230° (SW) 1,218 3.6 -21.0°
Drops below altitude 10° 02:39:51 10° 157° (SSE) 6,437 6.8 -23.5°
Sets 02:48:54 0° 155° (SSE) 9,638 7.7 -25.1°
